Theta_e
353 347 347 346 342 337 333 330 326 325 326 327 323 323 325 323 321 321 320 320 319 317
349 353 350 347 343 336 327 324 325 324 319 320 322 323 323 320 320 319 319 319 319 317
350 346 343 337 328 326 323 319 317 318 318 318 318 320 321 319 319 317 317 317 317 317
339 332 329 324 320 318 316 316 316 316 316 315 316 317 317 318 315 314 315 315 315 315
322 320 318 316 316 316 315 315 314 314 313 314 313 317 315 313 313 312 311 312 314 313
315 314 313 313 311 311 311 311 311 312 311 310 311 311 311 311 311 311 312 312 312 312
312 311 312 312 311 311 313 311 311 311 311 311 308 306 307 309 311 311 312 312 312 311
312 313 311 313 314 313 314 315 311 310 309 307 302 298 297 300 304 309 310 311 311 311
309 311 310 311 314 312 312 311 312 310 308 305 299 295 296 298 302 309 309 308 309 309
307 307 307 307 307 307 307 310 310 308 306 302 299 294 294 295 303 308 306 307 305 304
307 306 307 307 305 307 308 308 307 307 307 303 297 294 294 295 305 307 306 305 304 303
312 311 310 308 306 308 307 305 306 305 305 301 297 293 293 296 307 306 306 305 304 302
309 307 305 304 301 305 306 305 305 304 303 300 300 292 293 295 302 302 304 306 302 294
304 301 300 300 303 305 306 305 304 304 304 303 300 297 293 293 299 297 301 302 302 301
Wind_Speed
10 9 8 11 8 6 6 6 9 8 6 4 8 5 3 3 4 4 4 6 7 7
10 8 5 7 9 7 10 8 9 9 8 7 5 3 3 4 6 5 6 5 5 7
7 8 10 12 12 11 11 11 9 8 9 7 6 6 7 5 6 7 6 7 9 8
11 13 13 12 12 13 12 10 11 9 8 7 6 3 4 6 4 6 8 8 8 9
13 14 14 14 14 12 12 11 9 11 6 4 5 7 8 7 7 8 7 8 8 9
15 15 15 15 15 14 12 10 10 10 7 7 7 3 5 9 9 8 7 7 9 9
13 14 14 13 12 12 10 8 12 9 7 6 6 10 12 10 9 8 8 8 7 9
13 13 13 11 12 12 11 9 10 9 9 9 10 8 10 11 12 10 8 7 8 9
14 13 13 11 10 12 11 8 7 8 10 12 7 11 13 12 11 8 8 9 10 11
12 13 12 11 11 9 9 8 10 9 9 11 9 13 13 14 9 9 8 9 8 10
14 14 13 12 10 8 7 9 9 8 7 11 10 14 16 18 9 4 7 6 7 10
14 14 13 13 10 9 10 7 8 8 8 8 9 12 17 17 10 6 5 5 5 8
13 12 13 12 9 7 7 6 7 8 8 5 8 10 13 15 8 10 9 1 9 9
14 13 11 8 5 5 7 7 6 7 6 5 6 8 5 10 9 9 9 7 8 9
Wind_Direction
156 170 177 194 155 179 157 139 104 106 107 90 81 66 325 64 25 25 346 336 327 317
161 188 169 118 114 109 102 112 102 95 85 68 69 41 289 30 22 346 347 329 307 316
114 84 110 98 101 102 100 93 94 88 84 66 39 37 326 347 37 344 337 338 340 320
79 89 88 90 91 97 94 97 94 84 78 69 60 16 347 10 18 340 357 344 319 314
90 93 91 91 88 81 83 77 91 90 68 134 76 5 9 346 358 341 348 327 320 324
98 97 95 94 95 95 96 84 60 61 63 39 58 343 342 347 344 328 323 320 326 331
103 108 110 111 109 108 111 111 119 121 111 76 54 25 354 347 331 315 329 325 337 325
104 105 102 100 108 101 103 108 109 116 89 76 58 33 2 344 319 315 321 338 339 346
103 103 97 102 100 103 98 101 106 85 84 75 65 12 357 337 305 317 350 349 356 341
95 95 98 99 101 107 104 105 86 81 80 77 39 8 343 342 309 341 356 357 10 339
105 103 101 104 99 94 88 83 82 69 64 66 49 6 352 340 285 355 344 349 9 342
120 118 116 105 96 91 86 83 79 71 64 77 50 7 358 351 316 9 307 50 21 354
94 93 99 98 91 94 101 97 111 102 89 90 73 36 4 354 14 354 332 342 122 83
103 104 100 101 101 116 93 95 110 99 108 110 37 83 38 354 4 358 326 359 6 18